Regional Weather Roundup
Issued by NWS

Home | Current Version | Previous Version | Graphics & Text | Print | Product List | Glossary On
Versions: 1 2 3 4 5 6 7 8 9 10 11 12 13 14 15 16 17 18 19 20 21 22 23 24 25 26 27 28 29 30 31 32 33 34 35 36 37 38 39 40 41 42 43 44 45 46 47 48 49 50
000
ASUS43 KOAX 232210
RWRNE

WEATHER ROUNDUP FOR NEBRASKA
NATIONAL WEATHER SERVICE OMAHA NE
500 PM CDT WED MAY 23 2018

NOTES: SATELLITE DATA IS BEING USED TO AUGMENT CLOUD COVER ABOVE
       12000 FEET.
       "FAIR" INDICATES FEW OR NO CLOUDS BELOW 12,000 FEET WITH NO
       SIGNIFICANT WEATHER AND/OR OBSTRUCTIONS TO VISIBILITY.


NEZ001>004-019>022-054>056-232300-
NEBRASKA PANHANDLE

CITY           SKY/WX    TMP DP  RH WIND       PRES   REMARKS
SCOTTSBLUFF    PTSUNNY   80  58  46 SE13      29.91F
ALLIANCE       SUNNY     79  57  46 SE12      29.91F
CHADRON        SUNNY     79  61  53 NE9       29.89F
GORDON         FAIR      81  59  46 SE7       29.90F
KIMBALL        PTSUNNY   77  53  43 SW14G20   29.98F
SIDNEY         SUNNY     82  53  36 S12       29.94F
$$

NEZ057>060-069>072-079>082-232300-
SOUTHWEST NEBRASKA

CITY           SKY/WX    TMP DP  RH WIND       PRES   REMARKS
NORTH PLATTE   PTSUNNY   85  60  42 S9G21     29.91F
IMPERIAL       PTSUNNY   86  54  33 S17G25    29.90F
LEXINGTON      SUNNY     85  61  44 S22G28    29.92F
MCCOOK         PTSUNNY   85  59  41 SE20G29   29.90F
OGALLALA       PTSUNNY   84  54  36 S15G24    29.89F
$$

NEZ005>010-023>029-035>040-094-232300-
NORTH CENTRAL NEBRASKA

CITY           SKY/WX    TMP DP  RH WIND       PRES   REMARKS
VALENTINE      MOSUNNY   85  56  37 S21G32    29.89F
AINSWORTH      PTSUNNY   82  59  45 S18G26    29.92S
BROKEN BOW     MOSUNNY   85  60  42 S20G29    29.93F
O`NEILL        MOSUNNY   87  65  48 S13G21    29.95S
THEDFORD       PTSUNNY   84  58  42 S17G28    29.92F
$$

NEZ041-046>049-061>064-073>077-083>087-232300-
SOUTH CENTRAL NEBRASKA

CITY           SKY/WX    TMP DP  RH WIND       PRES   REMARKS
GRAND ISLAND   MOSUNNY   88  60  38 S20G31    29.94S
AURORA         MOSUNNY   88  56  33 S18G25    29.95R
HASTINGS       CLOUDY    87  59  38 S15G31    29.95F
HEBRON         MOSUNNY   90  55  30 S15G22    29.96S
HOLDREGE       CLOUDY    76  59  53 S20G26    29.96S
KEARNEY        MOSUNNY   83  58  42 S24G35    29.95S
YORK           MOSUNNY   90  57  33 S17G25    29.95S
$$

NEZ011>018-030>034-042>045-232300-
NORTHEAST NEBRASKA

CITY           SKY/WX    TMP DP  RH WIND       PRES   REMARKS
NORFOLK        SUNNY     89  56  32 S20G29    29.92F
ALBION         MOSUNNY   87  59  38 S17G25    29.95R
BLAIR          SUNNY     90  61  37 SE13G20   29.98S HX  90
COLUMBUS       SUNNY     92  55  28 S15G22    29.95S HX  90
FREMONT        MOSUNNY   91  56  30 SE16G22   29.97S
TEKAMAH        SUNNY     89  65  44 SE16G26   29.96F HX  91
WAYNE          SUNNY     89  56  33 S21       29.95F
$$

NEZ050>053-065>068-078-088>093-232300-
SOUTHEAST NEBRASKA

CITY           SKY/WX    TMP DP  RH WIND       PRES   REMARKS
LINCOLN        MOSUNNY   89  59  36 SE15      29.95F
OMAHA EPPLEY   MOSUNNY   92  60  34 SE14G23   29.97F HX  91
BEATRICE       MOSUNNY   90  63  40 S14G22    29.97S HX  90
FALLS CITY     MOSUNNY   89  59  36 SE18G28   29.99S
NEBRASKA CITY  MOSUNNY   87  62  41 S13G18    29.99S
PLATTSMOUTH    SUNNY     90  60  36 SE15G24   29.98S
$$

NEZ044-045-051>053-067-232300-
OMAHA AREA

CITY           SKY/WX    TMP DP  RH WIND       PRES   REMARKS
OMAHA EPPLEY   MOSUNNY   92  60  34 SE14G23   29.97F HX  91
BLAIR          SUNNY     90  61  37 SE13G20   29.98S HX  90
FREMONT        MOSUNNY   91  56  30 SE16G22   29.97S
MILLARD        MOSUNNY   91  64  41 SE15G21   29.96F HX  92
OFFUTT AFB     SUNNY     91  62  37 SE16G22   29.96F HX  91
PLATTSMOUTH    SUNNY     90  60  36 SE15G24   29.98S
WAHOO          FAIR      92  50  23 S24       29.97R
$$



USA.gov is the U.S. government's official web portal to all federal, state and local government web resources and services.